Millville, NJ

11:07 PM EST on December 12, 2017 (GMT -0500)
Millville Municipal

Weather History for KMIV - February, 2014

Change the Weather History Date:

Sunday, February 2, 2014

  Actual Average Record
Temperature  
Mean Temperature 42 °F -  
Max Temperature 57 °F 44 °F 66 °F (1967)
Min Temperature 28 °F 26 °F -2 °F (1961)
Degree Days  
Heating Degree Days 22    
Moisture  
Dew Point 34 °F    
Average Humidity 84    
Maximum Humidity 100    
Minimum Humidity 42    
Precipitation  
Precipitation 0.02 in - - ()
Sea Level Pressure  
Sea Level Pressure 29.98 in    
Wind  
Wind Speed 1 mph (West)    
Max Wind Speed 7 mph    
Max Gust Speed -    
Visibility 6 miles    
Events Fog , Rain    
Averages and records for this station are not official NWS values.
T = Trace of Precipitation, MM = Missing Value Source: NWS Daily Summary

Daily Weather History Graph

Daily Weather History Graph

Search for Another Location

Airport or City:

Trip Planner

Search our weather history database for the weather conditions in past years. The results will help you decide how hot, cold, wet, or windy it might be!

Date:

Astronomy

Feb. 02, 2014 Rise Set
Actual Time 7:06 AM EST 5:21 PM EST
Civil Twilight 6:38 AM EST 5:50 PM EST
Nautical Twilight 6:06 AM EST 6:22 PM EST
Astronomical Twilight 5:34 AM EST 6:53 PM EST
Moon 8:33 AM EST (2/2) 9:01 PM EST (2/2)
Length of Visible Light 11h 11m
Length of Day
10h 15m
Waxing Crescent, 11% of the Moon is Illuminated
Feb 2
Waxing Crescent
Feb 6
First Quarter
Feb 14
Full
Feb 22
Last Quarter
Mar 1
New

Hourly Weather History & Observations

Time (EST) Temp. Windchill Dew Point Humidity Pressure Visibility Wind Dir Wind Speed Gust Speed Precip Events Conditions
12:54 AM 43.0 °F - 41.0 °F 93% 29.99 in 7.0 mi Calm Calm - 0.01 in Rain Light Rain
1:54 AM 42.1 °F - 41.0 °F 96% 29.97 in 7.0 mi Calm Calm - 0.01 in   Overcast
2:54 AM 39.9 °F - 39.0 °F 97% 29.96 in 7.0 mi Calm Calm - N/A   Overcast
3:49 AM 39.2 °F - 37.4 °F 93% 29.95 in 6.0 mi Calm Calm - N/A   Mostly Cloudy
3:54 AM 39.0 °F - 37.9 °F 96% 29.95 in 7.0 mi Calm Calm - N/A   Overcast
4:15 AM 36.0 °F - 36.0 °F 100% 29.95 in 2.5 mi Calm Calm - N/A   Scattered Clouds
4:23 AM 35.1 °F - 35.1 °F 100% 29.95 in 1.0 mi Calm Calm - N/A   Partly Cloudy
4:36 AM 35.1 °F - 35.1 °F 100% 29.94 in 0.5 mi Calm Calm - N/A Fog Fog
4:54 AM 33.1 °F - 33.1 °F 100% 29.95 in 0.5 mi Calm Calm - N/A Fog Fog
5:27 AM 30.9 °F - 30.0 °F 96% 29.95 in 1.2 mi Calm Calm - N/A   Partly Cloudy
5:45 AM 30.0 °F - 30.0 °F 100% 29.96 in 0.8 mi Calm Calm - N/A   Mist
5:54 AM 30.9 °F - 30.0 °F 96% 29.96 in 1.0 mi Calm Calm - N/A   Mist
6:00 AM 30.9 °F - 30.0 °F 96% 29.96 in 2.0 mi Calm Calm - N/A   Partly Cloudy
6:08 AM 30.9 °F - 30.0 °F 96% 29.96 in 4.0 mi Calm Calm - N/A   Partly Cloudy
6:19 AM 30.0 °F - 28.9 °F 96% 29.96 in 2.0 mi Calm Calm - N/A   Clear
6:44 AM 28.9 °F - 28.9 °F 100% 29.97 in 0.8 mi Calm Calm - N/A   Clear
6:54 AM 28.9 °F - 28.9 °F 100% 29.97 in 0.5 mi Calm Calm - N/A Fog Light Freezing Fog
7:04 AM 28.9 °F - 28.9 °F 100% 29.98 in 1.8 mi Calm Calm - N/A   Clear
7:18 AM 30.0 °F - 30.0 °F 100% 29.98 in 0.2 mi Calm Calm - N/A Fog Light Freezing Fog
7:37 AM 28.9 °F - 28.0 °F 96% 29.98 in 1.0 mi Calm Calm - N/A   Clear
7:45 AM 30.0 °F - 28.9 °F 96% 29.98 in 3.0 mi Calm Calm - N/A   Clear
7:54 AM 30.0 °F - 28.9 °F 96% 29.98 in 3.0 mi Calm Calm - N/A   Clear
8:54 AM 37.9 °F - 37.0 °F 97% 30.00 in 3.0 mi Calm Calm - N/A   Clear
9:54 AM 46.0 °F 43.9 °F 39.0 °F 76% 29.99 in 10.0 mi WSW 4.6 mph - N/A   Clear
10:54 AM 48.9 °F - 36.0 °F 61% 30.01 in 10.0 mi West 6.9 mph - N/A   Clear
11:54 AM 53.1 °F - 33.1 °F 47% 29.99 in 10.0 mi West 6.9 mph - N/A   Clear
12:54 PM 55.0 °F - 34.0 °F 45% 29.97 in 10.0 mi NW 5.8 mph - N/A   Overcast
1:54 PM 55.9 °F - 33.1 °F 42% 29.96 in 10.0 mi Calm Calm - N/A   Mostly Cloudy
2:54 PM 55.9 °F - 34.0 °F 44% 29.95 in 10.0 mi Calm Calm - N/A   Overcast
3:54 PM 57.0 °F - 35.1 °F 44% 29.94 in 10.0 mi Calm Calm - N/A   Scattered Clouds
4:54 PM 52.0 °F - 35.1 °F 53% 29.97 in 10.0 mi WSW 3.5 mph - N/A   Clear
5:54 PM 41.0 °F 39.0 °F 33.1 °F 73% 30.00 in 10.0 mi WSW 3.5 mph - N/A   Clear
6:54 PM 41.0 °F 39.0 °F 34.0 °F 76% 30.02 in 10.0 mi SSW 3.5 mph - N/A   Clear
7:54 PM 39.9 °F - 34.0 °F 79% 30.03 in 10.0 mi Calm Calm - N/A   Overcast
8:54 PM 42.1 °F 40.2 °F 34.0 °F 73% 30.06 in 10.0 mi WSW 3.5 mph - N/A   Overcast
9:54 PM 42.1 °F 40.2 °F 35.1 °F 76% 30.06 in 10.0 mi NNW 3.5 mph - N/A   Overcast
10:54 PM 43.0 °F 40.3 °F 35.1 °F 74% 30.05 in 10.0 mi North 4.6 mph - N/A   Overcast
11:54 PM 45.0 °F 41.2 °F 36.0 °F 71% 30.05 in 10.0 mi North 6.9 mph - N/A   Overcast